Regional Weather Roundup
Issued by NWS

Home | Current Version | Previous Version | Graphics & Text | Print | Product List | Glossary On
Versions: 1 2 3 4 5 6 7 8 9 10 11 12 13 14 15 16 17 18 19 20 21 22 23 24 25 26 27 28 29 30 31 32 33 34 35 36 37 38 39 40 41 42 43 44 45 46 47 48 49 50
000
ASUS43 KLMK 191302
RWRKY
KENTUCKY REGIONAL WEATHER ROUNDUP
NATIONAL WEATHER SERVICE LOUISVILLE KY
900 AM EDT SUN APR 19 2015

NOTE "FAIR" INDICATES FEW OR NO CLOUDS BELOW 12,000 FEET
WITH NO SIGNIFICANT WEATHER AND/OR OBSTRUCTIONS TO VISIBILITY.

KYZ001>023-026-027-061>063-070>075-191400-
WESTERN AND SOUTH CENTRAL KENTUCKY

CITY           SKY/WX    TMP DP  RH WIND       PRES   REMARKS
PADUCAH        CLOUDY    64  62  93 SE3       29.65F FOG
HENDERSON      CLOUDY    61  57  88 CALM      29.68S
OWENSBORO      RAIN      62  62 100 SE9       29.69F FOG
HOPKINSVILLE   LGT RAIN  64  64  97 VRB2      29.67F FOG
BOWLING GREEN  LGT RAIN  65  62  90 E6        29.70F FOG
GLASGOW        NOT AVBL
$$

KYZ024-025-028>034-038-045-046-053-191400-
NORTH CENTRAL KENTUCKY

CITY           SKY/WX    TMP DP  RH WIND       PRES   REMARKS
LOUISVILLE/SDF LGT RAIN  60  58  92 E6        29.75F
LOUISVILLE/LOU LGT RAIN  59  57  93 E7        29.76F FOG
FORT KNOX      LGT RAIN  62  61  96 E10       29.72F FOG
$$

KYZ035>037-039>044-047>052-055>060-089>105-191400-
NORTHEAST KENTUCKY

CITY           SKY/WX    TMP DP  RH WIND       PRES   REMARKS
LEXINGTON      LGT RAIN  59  55  87 E8        29.81F
COVINGTON      LGT RAIN  61  47  59 E9        29.82F
FRANKFORT      LGT RAIN  58  53  84 E7        29.78F
$$

KYZ054-064>069-076>088-106>120-191400-
SOUTHEAST KENTUCKY

CITY           SKY/WX    TMP DP  RH WIND       PRES   REMARKS
JACKSON        LGT RAIN  62  55  77 VRB5      29.86S
LONDON         LGT RAIN  64  58  80 SE7       29.82F
SOMERSET       NOT AVBL
MIDDLESBORO    DRIZZLE   62  62  99 CALM      29.84F
MONTICELLO     CLOUDY    65  64  96 E6        29.81F FOG
$$



USA.gov is the U.S. government's official web portal to all federal, state and local government web resources and services.